Location: Del Oro Observatory
(38.3044°N, 104.8119°W)
Time: 10:14:40
(UTC-07:00)

Cosmos 1602 Rocket - Visible Passes

Search period start: 13 February 2016 00:00
Search period end: 23 February 2016 00:00
Orbit: 604 x 634 km, 82.5° (Epoch: 13 February)

Date Brightness Start Highest point End Pass type
(mag) Time Alt. Az. Time Alt. Az. Time Alt. Az.
20 Feb 5.8 19:11:21 10° NNE 19:11:33 11° NNE 19:11:33 11° NNE visible
21 Feb 5.2 19:28:08 10° N 19:29:44 21° NNE 19:29:44 21° NNE visible
22 Feb 4.4 19:45:19 10° N 19:48:05 39° N 19:48:05 39° N visible
